Find Kosmos-2478

NORAD ID: 37938 Int'l Des: 2011-071 Owner: KVR/IACG Country: RU Constellation: GLONASS operational
MEOCIRCULAR

現在のビュー

3D地球を読み込み中...

About Kosmos-2478

Kosmos-2478 (NORAD 37938) is a GLONASS constellation satellite launched Nov 28, 2011 by KVR/IACG of RU. It operates in MEO, CIRCULAR orbit with a mass of 1450.00 kg.

Kosmos-2478について

説明を読み込み中...

次回通過

Passes for default location (London). Set your location on the main map for personalized predictions.

高度履歴

Loading altitude history...

軌道要素

1 37938U 11071A 26169.34892106 -.00000055 00000-0 00000-0 0 9998
2 37938 65.4622 314.8242 0016669 216.5494 131.0931 2.13015639113160
Epoch: Jun 18, 2026 • Age: 38 hours

現在のステータス

高度 19159.6 km
速度 3.95 km/s
衛星直下点 59.89°N, 154.42°W
打ち上げ日 Nov 28, 2011
運用期間 14.5 years
タイプ other

技術仕様

分類 Payload
質量 1450.00 kg
乾燥質量 1200.00 kg
総質量 1450.00 kg
長さ 4.00 m
直径 1.50 m
スパン 7.80 m
形状 Cyl + Ant + 2 Pan
製造者 RESH
バスタイプ Uragan
フェーズステータス In Orbit
所有者/国 KVR/IACG/RU

Most Searched